Torna al catalogo

NAVSTAR 68

USA 242

AttivoNavigazioneHEO
NORAD 39166·PAYLOAD·🇺🇸 United States

Lanciato May 15, 2013 da Cape Canaveral Space Force Station

Loading…

Prossimi Passaggi (prossime 24 ore)

TLE

AggiornatoSource: CelesTrak SupGP

Epoca: Sep 16, 2026, 16:44 UTC

1 39166C 13023A   26259.69756944  .00000000  00000+0  00000+0 0  2595
2 39166  54.4387 265.2395 0142451  51.1026 148.3895  2.00563646    13

Traccia NAVSTAR 68 in tempo reale con AllMySat

Download on the App Store